This demonstration page uses our WeatherBlox Daily Observations layout. Learn more.

Left ArrowRight Arrow

Hourly Observations for November 14, 2022

Temp ( °F °C ) Dew Point ( °F °C ) Humidity (%) Winds ( mph kmh ) Pressure ( in mb ) Visibility ( mi km ) Precip ( " mm )
12:53 am 00:53 Mostly Clear 36 2.2 24 -4.4 62 62 SE 10 17 30.09 1019 10 16 0.00 0.00
1:53 am 01:53 Cloudy 36 2.2 25 -3.9 64 64 SSE 8 13 30.09 1019 10 16 0.00 0.00
2:53 am 02:53 Mostly Cloudy 35 1.7 25 -3.9 66 66 SSE 9 15 30.09 1019 10 16 0.00 0.00
3:53 am 03:53 Cloudy 37 2.8 25 -3.9 61 61 SSE 9 15 30.08 1019 10 16 0.00 0.00
4:53 am 04:53 Cloudy 38 3.3 26 -3.3 62 62 SSE 10 17 30.07 1018 10 16 0.00 0.00
5:53 am 05:53 Mostly Cloudy 38 3.3 26 -3.3 62 62 SSE 9 15 30.09 1019 10 16 0.00 0.00
6:53 am 06:53 Cloudy 38 3.3 26 -3.3 62 62 SSE 9 15 30.10 1019 10 16 0.00 0.00
7:53 am 07:53 Cloudy 39 3.9 26 -3.3 59 59 SSE 9 15 30.11 1020 10 16 0.00 0.00
8:53 am 08:53 Cloudy 39 3.9 27 -2.8 62 62 SSE 8 13 30.11 1020 10 16 0.00 0.00
9:53 am 09:53 Cloudy 38 3.3 27 -2.8 64 64 S 7 11 30.15 1021 10 16 0.00 0.00
10:53 am 10:53 Cloudy 39 3.9 28 -2.2 64 64 S 6 9 30.15 1021 9 14 0.01 0.13
11:53 am 11:53 Cloudy 40 4.4 27 -2.8 59 59 S 7 11 30.11 1020 10 16 0.00 0.00
12:53 pm 12:53 Cloudy 40 4.4 28 -2.2 62 62 Calm 30.08 1019 10 16 0.00 0.00
1:53 pm 13:53 Cloudy 40 4.4 27 -2.8 59 59 Calm 30.07 1018 10 16 0.00 0.00
2:43 pm 14:43 Cloudy with Light Rain 38 3.3 31 -0.6 76 76 VRB 5 7 30.11 1020 10 16 0.01 0.13
2:53 pm 14:53 Cloudy with Light Rain 37 2.8 32 0 82 82 SSW 7 11 30.09 1019 10 16 0.01 0.13
3:23 pm 15:23 Cloudy with Light Rain 37 2.8 33 0.6 85 85 SSW 3 6 30.12 1020 9 14 0.01 0.25
3:53 pm 15:53 Cloudy with Light Rain 37 2.8 32 0 82 82 WSW 5 7 30.10 1019 10 16 0.01 0.25
4:02 pm 16:02 Cloudy with Light Rain 36 2.2 33 0.6 89 89 Calm 30.12 1020 9 14 0.01 0.13
4:27 pm 16:27 Cloudy 36 2.2 33 0.6 89 89 Calm 30.14 1021 10 16 0.01 0.13
4:53 pm 16:53 Cloudy 37 2.8 33 0.6 85 85 N 10 17 30.12 1020 10 16 0.01 0.13
5:35 pm 17:35 Cloudy with Light Rain 35 1.7 32 0 88 88 NNW 10 17 30.17 1022 10 16 0.01 0.13
5:53 pm 17:53 Cloudy with Light Snow 34 1.1 32 0 92 92 N 9 15 30.13 1020 7 11 0.01 0.25
6:53 pm 18:53 Cloudy with Light Snow 32 0 30 -1.1 92 92 NNW 17 28 30.16 1021 4 6 0.01 0.13
7:27 pm 19:27 Cloudy with Light Snow 32 0 29 -1.7 88 88 NNW 14 22 30.22 1023 3 4 0.01 0.25
7:34 pm 19:34 Cloudy with Light Snow 31 -0.6 29 -1.7 92 92 NNW 15 24 30.22 1023 2 3 0.01 0.25
7:45 pm 19:45 Cloudy with Light Snow 31 -0.6 29 -1.7 92 92 NNW 13 20 30.22 1023 1 2 0.02 0.51
8:01 pm 20:01 Cloudy with Light Snow 31 -0.6 29 -1.7 92 92 N 14 22 30.23 1024 2 3 0.01 0.13
8:20 pm 20:20 Cloudy with Light Snow 31 -0.6 29 -1.7 92 92 N 12 19 30.23 1024 2 3 0.01 0.25
8:40 pm 20:40 Cloudy with Light Snow 31 -0.6 29 -1.7 92 92 N 10 17 30.23 1024 3 5 0.01 0.25
8:53 pm 20:53 Cloudy with Light Snow 31 -0.6 29 -1.7 92 92 N 9 15 30.19 1022 4 6 0.01 0.25
9:17 pm 21:17 Cloudy with Light Snow 31 -0.6 29 -1.7 92 92 N 12 19 30.23 1024 8 13 0.01 0.13
9:53 pm 21:53 Cloudy with Light Snow 31 -0.6 28 -2.2 89 89 N 9 15 30.20 1023 7 11 0.01 0.13
10:53 pm 22:53 Cloudy with Light Snow 31 -0.6 28 -2.2 89 89 N 10 17 30.21 1023 9 14 0.01 0.13
11:53 pm 23:53 Cloudy 30 -1.1 28 -2.2 92 92 NNW 14 22 30.22 1023 10 16 0.01 0.13

Powered by AerisWeather